Location: Newark
(42.8481°N, 0.4872°E)
Time: 14:18:18
(UTC+00:00)

Tiros 1 - All Passes

Search period start: 30 October 2020 00:00
Search period end: 09 November 2020 00:00
Orbit: 630 x 663 km, 48.4° (Epoch: 29 October)

Date Brightness Start Highest point End Pass type
(mag) Time Alt. Az. Time Alt. Az. Time Alt. Az.
30 Oct - 01:35:45 10° SSW 01:39:30 24° SE 01:43:14 10° E night (unlit)
30 Oct - 03:16:41 10° WSW 03:21:19 84° NNW 03:25:57 10° ENE visible
30 Oct - 04:59:27 10° WNW 05:03:53 42° N 05:08:17 10° ENE visible
30 Oct - 06:42:07 10° WNW 06:46:38 52° NNE 06:51:10 10° E daylight
30 Oct - 08:24:23 10° WNW 08:28:54 56° SSW 08:33:26 10° SE daylight
30 Oct - 10:08:49 10° WSW 10:10:20 11° SW 10:11:51 10° SSW daylight
31 Oct - 02:00:46 10° SW 02:05:15 50° SE 02:09:43 10° ENE visible
31 Oct - 03:42:54 10° W 03:47:27 55° NNW 03:52:00 10° ENE visible
31 Oct - 05:25:48 10° WNW 05:30:12 42° N 05:34:36 10° ENE visible
31 Oct - 07:08:10 10° WNW 07:12:48 78° NNE 07:17:27 10° ESE daylight
31 Oct - 08:50:46 10° W 08:54:41 27° SW 08:58:37 10° SSE daylight
01 Nov - 00:45:47 10° S 00:49:25 23° SE 00:53:02 10° E night (unlit)
01 Nov - 02:26:32 10° WSW 02:31:12 89° NNW 02:35:50 10° ENE visible
01 Nov - 04:09:18 10° W 04:13:43 43° N 04:18:08 10° ENE visible
01 Nov - 05:51:58 10° WNW 05:56:29 50° NNE 06:01:00 10° E visible
01 Nov - 07:34:14 10° WNW 07:38:47 60° SSW 07:43:21 10° SE daylight
01 Nov - 09:18:17 10° WSW 09:20:16 13° SW 09:22:15 10° SSW daylight
02 Nov - 01:10:41 10° SW 01:15:08 46° SE 01:19:35 10° ENE night (unlit)
02 Nov - 02:52:44 10° W 02:57:18 57° NNW 03:01:52 10° ENE visible
02 Nov - 04:35:39 10° WNW 04:40:02 41° N 04:44:26 10° ENE visible
02 Nov - 06:18:02 10° WNW 06:22:41 74° NNE 06:27:18 10° ESE daylight
02 Nov - 08:00:35 10° W 08:04:36 30° SW 08:08:36 10° SSE daylight
02 Nov - 23:55:50 10° S 23:59:19 21° SE 00:02:48 10° E night (unlit)
03 Nov - 01:36:23 10° WSW 01:41:04 87° SSE 01:45:42 10° ENE night (unlit)
03 Nov - 03:19:07 10° W 03:23:34 44° N 03:28:00 10° ENE visible
03 Nov - 05:01:50 10° WNW 05:06:20 49° NNE 05:10:50 10° E visible
03 Nov - 06:44:06 10° WNW 06:48:41 64° SSW 06:53:15 10° SE daylight
03 Nov - 08:27:51 10° WSW 08:30:12 14° SW 08:32:31 10° SSW daylight
04 Nov - 00:20:37 10° SW 00:25:02 43° SE 00:29:26 10° ENE night (unlit)
04 Nov - 02:02:33 10° W 02:07:10 59° NNW 02:11:45 10° ENE visible
04 Nov - 03:45:29 10° WNW 03:49:53 41° N 03:54:16 10° ENE visible
04 Nov - 05:27:54 10° WNW 05:32:32 70° NNE 05:37:09 10° ESE visible
04 Nov - 07:10:24 10° WNW 07:14:30 32° SW 07:18:36 10° SSE daylight
04 Nov - 23:05:54 10° S 23:09:14 19° SE 23:12:33 10° E night (unlit)
05 Nov - 00:46:15 10° WSW 00:50:56 82° SSE 00:55:35 10° ENE night (unlit)
05 Nov - 02:28:56 10° W 02:33:25 44° N 02:37:51 10° ENE visible
05 Nov - 04:11:42 10° WNW 04:16:11 47° NNE 04:20:40 10° E visible
05 Nov - 05:53:58 10° WNW 05:58:34 69° SSW 06:03:09 10° SE visible
05 Nov - 07:37:29 10° W 07:40:06 15° SW 07:42:45 10° SSW daylight
05 Nov - 23:30:33 10° SSW 23:34:55 40° SE 23:39:16 10° ENE night (unlit)
06 Nov - 01:12:23 10° W 01:17:00 62° NNW 01:21:37 10° ENE night (unlit)
06 Nov - 02:55:19 10° WNW 02:59:43 41° N 03:04:07 10° ENE visible
06 Nov - 04:37:46 10° WNW 04:42:23 67° NNE 04:47:00 10° ESE visible
06 Nov - 06:20:13 10° WNW 06:24:24 34° SW 06:28:34 10° SSE daylight
06 Nov - 22:15:59 10° S 22:19:09 18° SE 22:22:18 10° E night (unlit)
06 Nov - 23:56:07 10° SW 00:00:48 77° SSE 00:05:27 10° ENE night (unlit)
07 Nov - 01:38:45 10° W 01:43:15 45° N 01:47:43 10° ENE night (unlit)
07 Nov - 03:21:33 10° WNW 03:26:02 46° N 03:30:30 10° E visible
07 Nov - 05:03:49 10° WNW 05:08:26 73° SSW 05:13:02 10° SE visible
07 Nov - 06:47:09 10° W 06:50:02 16° SW 06:52:55 10° S daylight
07 Nov - 22:40:29 10° SSW 22:44:48 37° SE 22:49:06 10° ENE night (unlit)
08 Nov - 00:22:12 10° WSW 00:26:52 65° NNW 00:31:30 10° ENE night (unlit)
08 Nov - 02:05:08 10° WNW 02:09:34 41° N 02:13:57 10° ENE visible
08 Nov - 03:47:38 10° WNW 03:52:15 64° NNE 03:56:50 10° ESE visible
08 Nov - 05:30:03 10° WNW 05:34:18 37° SW 05:38:33 10° SSE visible
08 Nov - 21:26:06 10° S 21:29:04 17° SE 21:32:00 10° E night (unlit)
08 Nov - 23:05:59 10° SW 23:10:40 73° SSE 23:15:19 10° ENE night (unlit)
